Back to catalog

CZ-4 DEB

AliveSSO
NORAD 26286·DEBRIS·🇨🇳 China

Launched Oct 14, 1999 from Taiyuan Satellite Launch Center

Loading…

Next Passes (next 24 hours)

TLE

FreshSource: Space-Track

Epoch: Sep 14, 2026, 03:26 UTC

1 26286U 99057FY  26257.14366076  .00001540  00000-0  29239-3 0  9997
2 26286  98.3797 324.4361 0057501 331.9621  57.6328 14.64695110400232

Track CZ-4 DEB in real time with AllMySat

Download on the App Store